STARLINK-37616, 69040

Orbit data source: Space-Track

STARLINK-37616, 69040 is a payload satellite owned by SpaceX/Seattle (US) in SSO that was launched on Wed, 06 May 2026 UTC via an FALCON 9 launch vehicle from the Air Force Western Test Range (AFWTR). Payload-class satellites include a variety of spacecraft equipped with specific instruments for various scientific and technological missions. These include communications satellites like Starlink; space stations such as the ISS; scientific satellites like the Hubble; Earth observation satellites from companies like Planet Labs, Umbra, and HawkEye 360; GPS; miniature CubeSats for education and research; and military/defense satellites.

Loading next visibility...
Identifier
69040, 2026-101R
Orbit
SSO
Country
Flag of USUS
Related business
Manufacturer
SpaceX/Seattle
Mission
Operational Commercial Communications
Bus & Motor
STARLINK V2MO, Unknown motor
Mass
575 kg wet, ~530 kg dry
Launch date (UTC)
2026-05-06 (3 months ago)
Launch vehicle
FALCON 9
Launch site
Air Force Western Test Range (AFWTR)
Object type
Payload
Rocket body
Debris
Shape & HBR
Box + 2 Pan, 17.7 m
Radar Cross Section
36.964 m², Large (>1 m²)

Expand to show TLE details & history
Last TLE update: 13 hours ago

TLE from 13 hours ago
0 STARLINK-37616
1 69040U 26101R   26206.58553868  .00022143  00000-0  68618-3 0  9997
2 69040  97.2860  60.8326 0002116  90.9322 269.2164 15.33444785 12459
Epoch: 2026-07-25T14:03Z
TLE epoch observation values (Epoch: 2026-07-25T14:03:10.541Z)
Latitude
0.00003°
Longitude
-93.25703°
Altitude
468.676 km
Speed
7.632 km/s
True Right ascension
04h 03m 19s
True Declination
0° 00' 00"
Sunlit
Object was in daylight at epoch
Visualization orbit readout
Latitude
Unknown
Longitude
Unknown
Altitude
Unknown
Speed
Unknown
Apparent Right ascension
Unknown
Apparent Declination
Unknown
Sunlit
N/A
Visualization observer readout
Local Sidereal Time
16:18:40
Azimuth
Unknown
Elevation
Unknown
Doppler factor
Unknown
Orbital elements
Apogee altitude
463.934 km
Perigee altitude
461.039 km
Semi-major axis
6,840.624 km
Eccentricity
0.00021
Inclination
97.286°
RAAN
60.8326°
Arg. of periapsis
90.9322°
True anomaly
269.19215°
Mean anomaly
269.2164°
Eccentric anomaly
269.20428°
Mean motion
3.83619 °/min
Orbital period
93.84 mins
BSTAR
0.00068618
Loading maneuver chart data...
Computing Atmospheric mass density...
Loading historical data...
Loading historical data...
Loading historical data...
Loading historical data...
Loading historical data...
Loading historical data...
Loading historical data...

Documentation

Showing up to 5 results
|